Vorticity
7 2 6 10 7 -3 20 7 -16 -3 -0 1 12 26 -8 -2 6 0 -7 12 15 12 14 11 6 6 4 7 13 10 9 10 10 8 6 6 10 8 8 22 12 10 10 16
7 17 14 2 3 10 1 7 4 1 8 -2 -1 6 2 -3 6 -2 3 4 10 2 5 26 16 11 9 9 6 4 5 9 9 8 7 3 15 17 12 8 6 6 8 6
6 1 7 -8 0 7 2 3 1 9 1 3 1 5 1 3 -9 2 3 1 4 7 -9 15 11 7 8 10 11 11 12 9 7 8 8 9 7 11 8 7 6 4 6 5
4 5 12 1 -7 26 -12 6 3 9 0 5 2 -4 -3 11 -18 15 1 4 0 3 1 16 8 10 6 -0 3 8 9 8 8 9 10 5 7 4 9 3 6 8 8 11
18 -0 -4 10 22 13 -4 9 -5 9 1 -0 1 -1 4 9 -0 2 9 22 14 -1 10 19 5 8 6 4 7 4 6 13 8 7 3 7 1 15 21 13 11 6 4 9
16 7 -9 15 18 -0 -0 -3 -5 4 10 19 14 26 29 2 -2 -5 15 7 6 1 7 -11 14 4 6 12 3 12 6 3 3 3 8 10 10 6 4 2 5 2 5 4
10 8 -6 23 12 13 -5 4 2 4 12 -12 -5 4 6 -3 7 7 7 8 2 -1 7 -8 28 14 3 4 7 13 7 3 3 3 1 -1 2 7 3 3 1 3 3 4
6 -2 11 16 15 25 -8 -1 15 17 12 -6 3 10 9 8 -4 9 4 15 25 15 10 7 10 1 -2 5 5 7 10 8 3 4 5 7 12 8 4 5 4 4 5 6
1 3 2 -12 12 16 24 -2 -6 5 -8 4 3 -0 5 8 4 0 15 -1 14 8 31 13 19 48 -2 1 1 2 6 8 4 4 4 1 6 3 6 7 14 6 8 5
15 1 5 9 8 27 22 -4 -1 -1 3 10 -0 -5 3 1 6 11 -4 13 -4 11 1 5 19 -9 3 32 3 3 3 6 -2 1 3 3 5 -9 7 5 2 -1 5 6
2 -4 10 8 10 6 5 3 4 3 8 4 4 1 -0 0 2 11 -3 6 -2 17 17 12 15 18 38 29 5 2 -2 -19 14 -42 -0 4 3 1 2 1 4 3 4 7
1 0 -0 -18 14 4 7 7 8 5 19 6 3 5 4 14 5 6 10 -7 -7 -9 11 -3 -3 39 29 17 3 2 11 7 -8 66 -13 54 -22 -16 6 8 4 4 3 3
1 8 -3 -1 -8 26 14 -2 10 -1 5 5 15 12 10 0 7 -14 -0 -3 13 16 -1 20 2 19 22 2 10 4 -5 -1 -1 87 78 -4 -0 5 -4 3 7 6 5 5
6 1 -1 11 0 7 -5 13 29 7 2 5 7 5 2 10 -4 5 8 25 30 20 21 13 6 4 55 83 66 8 19 31 18 12 -1 6 3 4 6 3 5 5 4 4
4 0 -0 17 22 5 -7 5 18 16 8 -2 1 3 2 15 17 -10 -5 14 18 19 19 15 14 15 -2 40 14 10 10 8 6 -1 1 1 3 4 8 4 4 5 4 6
7 -12 11 20 7 7 20 11 -18 18 18 17 4 -13 11 -2 10 2 4 29 20 16 21 11 17 31 36 -0 6 7 1 1 7 4 4 0 2 4 4 8 7 7 7 7
4 7 -1 -5 12 18 23 15 18 23 17 18 28 22 18 5 6 15 12 12 13 16 6 16 -15 -10 16 1 2 3 3 2 5 6 5 1 3 7 6 6 8 10 11 12
2 4 10 17 2 15 9 24 8 -2 -0 13 13 6 1 25 17 17 16 11 8 8 8 3 9 8 4 -0 -7 8 9 6 5 5 7 10 11 11 11 12 11 9 7 4
6 4 4 7 16 12 5 -5 3 9 13 13 12 13 21 13 6 14 10 6 6 7 7 5 3 6 7 7 8 8 7 10 15 17 18 17 12 10 6 4 5 7 8 9
30 23 7 6 14 15 17 14 8 5 5 3 8 9 9 10 10 10 8 7 6 4 8 8 8 7 8 12 13 12 12 15 14 9 6 4 4 7 10 12 11 8 6 4
27 73 7 10 -0 18 8 15 16 10 11 8 8 7 8 10 6 8 7 7 6 5 9 12 13 16 15 12 10 19 16 7 5 7 10 10 15 10 2 3 8 8 7 6
9 18 4 20 -10 9 2 5 5 8 10 12 16 12 10 9 7 6 5 5 9 12 12 12 11 21 23 18 8 5 7 9 10 16 12 4 5 6 7 7 7 11 15 18
34 17 13 -7 -4 2 6 4 8 9 11 10 11 11 9 8 7 5 5 8 11 10 12 17 17 9 5 4 7 8 8 13 11 6 4 5 7 6 10 10 11 10 10 11
3 -4 -4 3 1 2 5 9 10 14 14 9 6 6 6 6 6 8 11 10 10 12 15 8 7 5 5 7 7 11 11 10 9 5 7 6 10 12 9 9 11 11 11 11
4 0 10 5 1 4 7 8 5 14 7 7 7 6 6 9 11 11 10 10 9 11 8 8 6 5 8 9 11 11 11 7 6 7 9 11 11 8 8 10 12 11 12 11
1 0 0 1 3 6 7 7 13 15 9 8 8 10 9 9 9 9 9 9 11 10 8 7 5 8 9 9 12 9 8 7 7 8 11 12 6 8 11 13 11 5 7 12
Height
5897 5901 5904 5905 5905 5908 5910 5909 5911 5912 5915 5915 5914 5915 5916 5916 5915 5913 5911 5909 5908 5906 5907 5907 5904 5904 5903 5902 5901 5901 5900 5898 5896 5894 5893 5892 5892 5892 5893 5893 5896 5897 5898 5898
5895 5899 5903 5903 5904 5907 5908 5909 5910 5913 5913 5915 5916 5916 5917 5916 5916 5914 5912 5911 5909 5907 5908 5907 5906 5904 5903 5901 5899 5898 5898 5897 5896 5895 5893 5890 5889 5890 5893 5895 5896 5896 5896 5896
5892 5899 5900 5902 5905 5908 5908 5909 5912 5913 5912 5914 5914 5915 5915 5914 5914 5913 5913 5911 5910 5909 5908 5908 5907 5906 5902 5902 5901 5899 5899 5898 5895 5894 5894 5891 5889 5890 5890 5893 5893 5893 5893 5893
5892 5896 5899 5902 5905 5907 5907 5908 5909 5910 5911 5912 5912 5912 5914 5913 5914 5914 5913 5913 5910 5909 5908 5907 5906 5905 5906 5904 5903 5900 5896 5898 5895 5894 5895 5896 5894 5889 5889 5889 5891 5893 5892 5891
5891 5892 5895 5897 5901 5904 5907 5907 5908 5908 5909 5909 5910 5909 5912 5914 5913 5912 5912 5910 5910 5911 5909 5909 5907 5907 5906 5904 5902 5900 5897 5895 5896 5896 5894 5895 5897 5896 5894 5893 5891 5891 5892 5891
5886 5888 5894 5898 5898 5901 5903 5904 5906 5907 5908 5908 5910 5908 5909 5910 5910 5909 5909 5909 5908 5908 5907 5908 5908 5907 5906 5903 5902 5900 5898 5895 5896 5897 5897 5896 5897 5897 5894 5892 5891 5890 5890 5890
5884 5887 5894 5897 5898 5899 5901 5902 5904 5905 5905 5907 5909 5908 5907 5905 5906 5907 5905 5903 5905 5905 5906 5905 5903 5905 5905 5903 5903 5901 5898 5896 5896 5897 5898 5898 5894 5893 5892 5890 5888 5888 5887 5888
5882 5890 5894 5896 5898 5900 5899 5900 5902 5903 5903 5905 5904 5904 5903 5900 5903 5903 5903 5902 5903 5902 5903 5902 5902 5899 5900 5902 5902 5900 5900 5896 5892 5893 5893 5893 5894 5893 5891 5889 5888 5887 5886 5885
5884 5889 5891 5892 5891 5892 5896 5898 5900 5900 5899 5900 5901 5900 5898 5898 5900 5900 5901 5901 5901 5901 5901 5899 5900 5895 5894 5893 5895 5895 5894 5894 5888 5888 5887 5888 5889 5890 5889 5889 5888 5886 5884 5883
5884 5886 5888 5890 5890 5890 5891 5896 5897 5897 5897 5897 5897 5897 5894 5896 5897 5899 5899 5898 5897 5897 5895 5894 5893 5888 5887 5886 5887 5886 5887 5885 5883 5883 5883 5882 5881 5872 5880 5879 5883 5881 5880 5881
5881 5884 5887 5886 5888 5890 5892 5892 5894 5895 5895 5893 5893 5891 5892 5893 5893 5894 5894 5894 5893 5892 5888 5885 5882 5883 5878 5880 5873 5878 5877 5855 5860 5854 5871 5872 5873 5874 5877 5879 5878 5878 5877 5876
5880 5882 5884 5886 5886 5888 5889 5890 5891 5891 5891 5890 5889 5887 5887 5888 5890 5891 5893 5893 5891 5888 5887 5884 5879 5875 5874 5872 5866 5865 5867 5858 5846 5818 5852 5853 5861 5864 5872 5872 5874 5872 5873 5872
5878 5879 5880 5881 5884 5885 5885 5886 5888 5887 5887 5886 5886 5885 5884 5885 5887 5888 5888 5887 5886 5884 5881 5877 5874 5868 5860 5856 5855 5859 5862 5859 5858 5843 5819 5850 5857 5861 5862 5864 5864 5866 5866 5866
5875 5876 5877 5879 5881 5882 5882 5882 5883 5883 5882 5882 5883 5882 5881 5883 5882 5881 5880 5877 5875 5876 5873 5870 5868 5862 5853 5846 5853 5857 5862 5865 5854 5847 5839 5845 5853 5856 5854 5854 5858 5859 5857 5858
5871 5873 5874 5875 5877 5878 5878 5878 5878 5878 5879 5879 5881 5880 5880 5879 5877 5875 5874 5871 5869 5868 5865 5861 5858 5855 5850 5844 5848 5853 5854 5848 5847 5843 5846 5848 5848 5848 5847 5849 5850 5850 5849 5849
5867 5868 5870 5871 5872 5874 5872 5873 5873 5874 5875 5875 5875 5876 5877 5876 5872 5869 5866 5862 5860 5860 5858 5857 5854 5850 5848 5847 5849 5847 5844 5843 5838 5838 5840 5838 5841 5843 5840 5841 5842 5841 5838 5836
5864 5865 5865 5866 5868 5868 5866 5868 5869 5871 5872 5870 5870 5872 5871 5871 5870 5865 5862 5859 5854 5852 5851 5852 5852 5850 5847 5845 5839 5837 5838 5838 5834 5831 5831 5832 5831 5829 5829 5829 5826 5823 5822 5821
5857 5859 5861 5862 5864 5864 5864 5865 5866 5866 5867 5866 5865 5865 5865 5864 5863 5859 5856 5855 5853 5850 5848 5847 5845 5845 5842 5837 5834 5831 5830 5830 5829 5827 5823 5820 5818 5817 5814 5813 5813 5812 5809 5806
5852 5853 5855 5858 5860 5861 5862 5862 5863 5862 5863 5862 5860 5860 5861 5860 5857 5854 5852 5849 5847 5847 5845 5842 5839 5835 5831 5830 5829 5829 5828 5827 5826 5822 5819 5818 5816 5813 5809 5808 5806 5802 5800 5798
5849 5849 5852 5855 5855 5855 5857 5858 5857 5856 5856 5856 5855 5854 5853 5851 5850 5849 5846 5844 5842 5842 5840 5839 5837 5833 5829 5824 5822 5820 5818 5816 5814 5813 5812 5810 5808 5805 5801 5798 5795 5790 5789 5786
5841 5838 5845 5849 5850 5852 5852 5851 5851 5851 5855 5849 5847 5846 5845 5844 5843 5840 5839 5837 5835 5833 5832 5832 5832 5830 5827 5825 5820 5815 5812 5809 5807 5803 5800 5798 5794 5791 5788 5783 5779 5776 5773 5770
5837 5838 5842 5844 5846 5848 5847 5845 5845 5844 5841 5840 5839 5837 5835 5835 5834 5833 5831 5829 5827 5824 5822 5820 5818 5818 5817 5815 5813 5812 5809 5805 5800 5798 5795 5789 5783 5780 5775 5771 5767 5763 5758 5754
5834 5835 5839 5839 5841 5840 5840 5840 5839 5837 5835 5832 5831 5829 5827 5825 5825 5824 5823 5821 5817 5815 5812 5808 5805 5803 5803 5803 5801 5797 5795 5793 5789 5786 5780 5775 5771 5765 5760 5756 5751 5746 5739 5734
5830 5831 5832 5834 5834 5834 5834 5834 5833 5830 5828 5825 5823 5821 5819 5818 5816 5815 5813 5811 5809 5805 5802 5800 5798 5797 5795 5792 5788 5785 5782 5778 5776 5772 5768 5763 5757 5753 5748 5741 5735 5730 5725 5720
5822 5822 5824 5825 5826 5827 5825 5825 5824 5822 5819 5817 5814 5812 5811 5810 5808 5806 5802 5799 5796 5795 5795 5793 5791 5788 5785 5781 5778 5775 5771 5767 5763 5759 5755 5750 5745 5739 5734 5727 5720 5714 5707 5701
5815 5816 5817 5818 5818 5817 5816 5816 5815 5814 5812 5809 5806 5804 5801 5799 5798 5796 5794 5791 5788 5786 5784 5783 5780 5777 5775 5771 5768 5764 5760 5756 5752 5747 5742 5735 5729 5724 5717 5712 5708 5700 5692 5686